Location: Verv�
(46.3000°N, 11.1167°E)
Time: 11:37:07
(UTC+00:00)

Daily predictions for brighter satellites

Satellite Brightness Start Highest point End
(mag) Time Altitude Azimuth Time Altitude Azimuth Time Altitude Azimuth
Cosmos 2058 Rocket 3.5 16:41:21 10° NNW 16:45:52 71° W 16:50:21 10° S
Cosmos 1455 2.1 16:43:57 10° N 16:47:48 76° E 16:51:38 10° SSE
Cosmos 405 4.1 16:45:15 10° NNE 16:48:07 23° ENE 16:50:57 10° SE
ARGOS 4.5 16:45:19 10° E 16:48:51 18° ENE 16:52:23 10° NNE
SL-24 R/B 4.5 16:44:42 10° SSE 16:49:13 82° WSW 16:54:16 10° NNW
Cosmos 1626 Rocket 3.7 16:45:39 10° S 16:49:56 53° E 16:54:17 10° NNE
Cosmos 1092 Rocket 4.3 16:44:55 10° SSE 16:50:44 46° E 16:56:33 10° NNE
Cosmos 2263 Rocket 4.4 16:48:21 10° W 16:52:19 19° NW 16:56:16 10° N
Cosmos 1898 Rocket 3.7 16:48:06 10° S 16:53:13 56° ESE 16:58:20 10° NNE
Cosmos 923 Rocket 4.3 16:48:43 10° NNW 16:54:04 76° WSW 16:59:21 10° SSE
CZ-4C R/B 3.9 16:53:06 10° N 16:56:10 46° WNW 16:59:17 10° SSW
TELKOM 3 3.8 16:54:42 10° WNW 16:56:40 30° N 16:58:27 12° ENE
CZ-2C R/B 4.4 16:55:16 10° ENE 16:57:19 12° E 16:59:20 10° ESE
Cosmos 1680 Rocket 3.5 16:53:06 10° NNW 16:58:22 90° W 17:03:35 10° SSE
Nadezhda 4 Rocket 4.0 16:53:13 10° S 16:59:26 85° E 17:05:38 10° N
Cosmos 1328 4.2 16:58:26 10° SSE 17:02:12 42° E 17:05:58 10° NNE
CZ-4B R/B 1.7 17:01:37 10° NNE 17:04:46 42° E 17:07:50 10° S
CZ-2D R/B 3.5 17:01:35 10° SE 17:05:15 45° ENE 17:08:56 10° N
Landsat 5 4.5 17:02:11 10° N 17:05:52 44° WNW 17:09:30 10° SW
MOS 1 Rocket 3.6 17:02:29 10° NNE 17:06:30 37° E 17:10:32 10° SSE
Meteor 2-8 Rocket 4.5 17:02:47 10° N 17:08:49 58° ENE 17:14:51 10° SSE
Cosmos-2242 3.7 17:05:56 10° N 17:09:49 32° ENE 17:13:42 10° SE
NOSS 3-1 (C) 4.2 17:05:05 10° NW 17:12:37 85° SW 17:21:22 10° SSE
COSMO-SKYMED 1 2.7 17:09:37 10° NNE 17:13:55 55° E 17:18:10 10° S
BREEZE-M DEB (TANK) 2.2 17:13:40 10° WNW 17:15:49 42° N 17:17:15 19° ENE
Cosmos 1937 Rocket 3.6 17:10:37 10° S 17:15:51 64° ESE 17:21:09 10° NNE
Cosmos 1758 Rocket 4.0 17:12:28 10° SSE 17:16:39 41° E 17:20:54 10° NNE
Aureole 3 3.8 17:14:35 10° NNW 17:17:32 46° W 17:20:24 10° S
USA 290 2.4 17:18:51 10° N 17:21:56 44° ENE 17:25:00 10° SE
NOSS 2-1 (C) 3.6 17:20:51 10° WSW 17:24:06 49° NW 17:27:19 11° NNE
CZ-4 R/B 4.4 17:21:06 10° SSE 17:25:13 68° ENE 17:29:22 10° N
Cosmos 1833 Rocket 2.6 17:20:19 10° NNW 17:25:55 65° ENE 17:31:29 10° SE
H-2A R/B 2.3 17:22:51 10° SE 17:27:41 46° ENE 17:32:39 10° N
Cosmos 1939 Rocket 3.5 17:25:58 10° S 17:29:59 60° W 17:34:00 10° NNW
NOSS 2-1 (D) 3.9 17:26:53 10° WSW 17:30:04 43° NW 17:33:06 12° NNE
Helios 1A Rocket 3.5 17:26:32 10° SE 17:30:17 34° ENE 17:34:03 10° N
H-2A R/B 3.4 17:26:53 10° N 17:31:01 41° WNW 17:35:01 10° SW
Cosmos 2344 4.3 17:23:16 10° NW 17:32:34 78° NE 17:45:35 10° SE
Cosmos 1602 Rocket 3.8 17:29:07 10° SSW 17:33:27 74° W 17:37:52 10° N
USA 229 DEB 4.0 17:26:44 10° NW 17:34:05 84° SW 17:41:48 10° SSE
Cosmos 44 4.4 17:29:31 10° WSW 17:34:10 43° NW 17:39:07 10° NNE
USA 229 4.0 17:26:50 10° NW 17:34:11 85° SW 17:41:55 10° SSE
Cosmos 2026 Rocket 3.9 17:28:30 10° S 17:34:38 76° E 17:40:54 10° NNE
CZ-3B R/B 2.1 17:32:29 10° NW 17:35:12 84° NE 17:43:41 10° SE
Feng Yun 1-1 Rocket 4.4 17:29:45 10° SSE 17:35:14 79° WSW 17:40:55 10° NNW
SJ 16-02 3.6 17:33:30 10° WSW 17:37:03 24° WNW 17:40:38 10° N
YAOGAN 1 2.6 17:35:02 10° SSE 17:39:15 56° ENE 17:43:31 10° N
Meteor 2-15 Rocket 4.5 17:33:27 10° N 17:39:31 56° ENE 17:45:32 10° SSE
SJ-11-01 4.4 17:36:33 10° SSE 17:41:04 52° ENE 17:45:37 10° N
Cosmos 1689 Rocket 2.3 17:41:34 40° E 17:41:46 41° E 17:44:28 10° S
Cosmos 1844 Rocket 4.4 17:37:39 10° WSW 17:42:31 29° NW 17:47:24 10° N
Cosmos 1553 Rocket 4.0 17:36:16 10° N 17:42:36 59° ENE 17:48:48 10° SSE
Aureole 3 Rocket 2.6 17:40:01 10° N 17:43:17 81° W 17:47:23 10° S
COSMOS 2406 3.3 17:39:28 10° NNW 17:45:17 82° WSW 17:51:02 10° SSE
Cosmos 2082 Rocket 2.3 17:40:07 10° NNW 17:45:44 52° ENE 17:51:16 10° SE
HJ-1C 3.8 17:47:04 37° ENE 17:47:04 37° ENE 17:50:05 10° N
Cosmos 1825 Rocket 3.5 17:44:09 10° S 17:48:28 65° E 17:52:53 10° NNE
IRS-1C Rocket 4.2 17:43:31 10° SSE 17:48:46 80° WSW 17:54:03 10° NNW
Meteor 1-27 4.1 17:43:53 10° N 17:49:27 62° ENE 17:54:56 10° SSE
NOSS 3-1 (A) 4.2 17:42:11 10° NW 17:49:46 81° SW 17:58:31 10° SSE
X-37B 1.4 17:47:20 10° W 17:50:23 45° SSW 17:51:36 29° SE
deb Kosmos-1763 4.2 17:48:54 10° N 17:52:23 45° ENE 17:52:52 42° E
ISS -2.7 17:50:14 10° WNW 17:53:20 32° N 17:53:50 30° NNE
Okean O Rocket 4.3 17:51:30 10° SW 17:54:57 22° W 17:58:26 10° NW
ATLAS 5 CENTAUR R/B 4.2 17:57:26 10° NNW 17:58:52 11° N 18:00:23 10° NNE
CZ-4 R/B 1.5 17:54:56 10° S 17:58:58 76° WSW 18:02:57 10° NNW
Iridium 4 Rocket 3.8 17:55:24 10° N 18:00:45 68° W 18:05:36 10° S
ERS-2 2.2 17:58:38 12° N 18:02:01 77° WNW 18:05:38 10° SSW
CSL-04 Rocket 3.6 17:57:54 10° SSE 18:03:16 62° ENE 18:08:43 10° N
Okean-O 2.8 18:02:01 10° S 18:06:25 75° WSW 18:10:53 10° NNW
USA 234 4.1 18:05:52 24° NE 18:08:56 35° N 18:14:44 10° WNW
S3M 3.9 18:03:01 10° N 18:09:06 65° ENE 18:15:11 10° SSE
CZ-4C R/B 4.3 18:05:07 10° NNW 18:09:29 19° N 18:11:46 16° NE
Cosmos 1346 Rocket 3.0 18:07:40 10° SSW 18:11:35 67° WNW 18:15:11 12° N
Cosmos 1655 Rocket 4.0 18:05:43 10° S 18:11:47 58° E 18:17:52 10° NNE
Cosmos 2278 Rocket 2.4 18:06:38 10° SSW 18:12:18 74° WNW 18:17:11 14° NNE
Cosmos 1953 Rocket 3.4 18:10:37 10° S 18:14:58 82° E 18:17:58 20° NNE
CZ-2C R/B 4.4 18:09:51 10° S 18:15:05 45° W 18:20:34 10° NNW
Cosmos 2292 Rocket 3.3 18:14:54 10° S 18:19:48 78° E 18:20:41 53° NNE
SAR-Lupe-4 4.1 18:17:50 22° N 18:19:57 56° WNW 18:23:26 10° SSW
Cosmos 44 Rocket 3.2 18:17:42 10° SSW 18:22:33 66° ESE 18:23:19 57° ENE
ARGOS 3.2 18:23:07 10° S 18:28:28 77° WSW 18:33:54 10° NNW
Meteor 2-2 Rocket 4.3 18:24:42 10° N 18:30:40 66° ENE 18:34:20 24° SSE
Cosmos 1869 3.7 18:27:10 10° N 18:30:11 52° NNW 18:30:11 52° NNW
NOSS 2-2 (D) 4.5 18:27:20 10° NNW 18:32:35 56° NE 18:33:30 51° ENE
CZ-2C R/B 2.6 18:33:45 15° NNE 18:38:26 79° ESE 18:44:04 10° S
Cosmos 494 Rocket 3.8 18:37:23 10° NNW 18:42:29 79° NE 18:42:29 79° NE
Cosmos 2150 Rocket 3.9 18:39:53 10° SSW 18:45:02 83° WNW 18:45:58 61° N
Cosmos 1048 Rocket 4.2 18:42:26 10° NNW 18:47:32 67° WSW 18:49:36 35° S
Cosmos 2297 4.1 18:47:14 10° SSW 18:51:23 48° S 18:51:23 48° S
SL-08 RB Rocket 4.5 18:59:18 41° SW 19:00:18 49° W 19:04:40 10° NNW
H-2A R/B 4.1 19:03:10 10° SSW 19:07:19 25° W 19:11:36 10° NW
Cosmos 1125 Rocket 4.0 19:04:32 10° SSW 19:08:41 54° SW 19:08:41 54° SW
Cosmos 2266 Rocket 4.4 19:07:56 10° SSW 19:14:05 61° WNW 19:20:11 10° N
Cosmos 1943 Rocket 4.4 19:22:42 10° SSW 19:23:18 13° SSW 19:23:18 13° SSW
Cosmos 2082 Rocket 4.1 19:24:47 10° NW 19:29:29 27° WSW 19:33:42 12° SSW
ATLAS 2AS CENTAUR R/B 4.3 19:43:47 10° NNW 19:48:21 27° N 19:48:21 27° N
USA 234 4.2 19:53:12 39° NNW 19:53:12 39° NNW 19:57:30 10° NW
CZ-4C R/B 4.3 19:53:47 10° NNW 19:56:58 26° N 19:56:58 26° N
